Погода в Бармашуре

Россия / Удмуртская Республика     58°15′11″N   52°05′32″E
темп.,
°C
ветер,
м/с
пор.,
м/с
влажн.,
%
обл.,
%
осадки,
мм/ч
давл.,
гПа
погр.,
м
17 мая, пн
пн1701:00+15ю369187 2.8 1015129
04:00+15ю119399 5.2 101418
07:00+17зюз478294 0.1 1015269
10:00+22зюз56620 0.2 1015920
13:00+25з694669 0.2 10162453
16:00+24з684650 0.2 10162069
19:00+21з595715 0.0 1016365
22:00+16ссз347287 0.0 101766
18 мая, вт
вт1801:00+14с2286100 0.0 101939
04:00+11с238712 0.0 102041
07:00+14с357651 0.0 1021326
10:00+19с3459100 0.0 1021975
13:00+22ссв3448100 0.0 10211437
16:00+23св3444100 0.0 10211586
19:00+20св236099 0.0 102171
22:00+15в376996 0.0 1022111
19 мая, ср
ср1901:00+13вюв3673100 0.0 1023100
04:00+11вюв388173 0.0 1023147
07:00+15юв487414 0.0 1024372
10:00+19юв56516 0.0 1024860
13:00+22юв463939 0.0 10231237
16:00+23юв453595 0.0 10221355
19:00+20юв3653100 0.0 1022121
22:00+15юв3461100 0.0 102261
20 мая, чт
чт2001:00+13юв2267100 0.0 102229
04:00+12юв2372100 0.0 102225
07:00+15юв2465100 0.0 1022159
10:00+21ююв3449100 0.0 1022649
13:00+24ююв4438100 0.0 10201452
16:00+25ююв353522 0.0 10191930
19:00+22ю36535 0.0 1018139
22:00+16ююв36615 0.0 101886
21 мая, пт
пт2101:00+13юв33660 0.0 101833
04:00+12вюв356799 0.0 101771
07:00+16вюв41165100 0.0 1016319
10:00+21ююв61043100 0.0 10151346
13:00+21юв6115478 0.0 10141561
16:00+20ю7106316 1.5 10121347
19:00+16юз71186100 2.4 1012784
22:00+13ю41195100 2.9 1014368